| time (UTC) | temp F | wind direction | speed MPH | gust MPH | rain 1hr in | rain 24hr in | rain mn in | humidity % | barometer mb |
| 20260831210006 | 71 | 62 | 2.0 | 8.0 | 0.00 | 0.01 | 0.00 | 63 | 1015.3 |
| 20260831204518 | 71 | 115 | 0.0 | 2.0 | 0.00 | 0.01 | 0.00 | 61 | 1015.4 |
| 20260831203023 | 72 | 46 | 1.0 | 7.0 | 0.00 | 0.01 | 0.00 | 61 | 1015.2 |
| 20260831201504 | 72 | 120 | 2.0 | 5.0 | 0.00 | 0.01 | 0.00 | 64 | 1015.1 |
| 20260831200013 | 72 | 76 | 0.0 | 8.0 | 0.00 | 0.01 | 0.00 | 62 | 1015.2 |
| 20260831194511 | 73 | 151 | 0.0 | 0.0 | 0.00 | 0.01 | 0.00 | 64 | 1015.4 |
| 20260831193020 | 73 | 120 | 0.0 | 7.0 | 0.00 | 0.01 | 0.00 | 66 | 1015.5 |
| 20260831191504 | 72 | 137 | 0.0 | 2.0 | 0.00 | 0.01 | 0.00 | 67 | 1015.8 |
| 20260831190014 | 72 | 75 | 0.0 | 4.0 | 0.00 | 0.01 | 0.00 | 68 | 1015.8 |
| 20260831184520 | 72 | 122 | 0.0 | 7.0 | 0.00 | 0.01 | 0.00 | 69 | 1015.9 |
| 20260831183013 | 73 | 110 | 0.0 | 4.0 | 0.00 | 0.01 | 0.00 | 66 | 1016.0 |
| 20260831181523 | 73 | 327 | 0.0 | 8.0 | 0.00 | 0.01 | 0.00 | 65 | 1016.0 |
| 20260831180016 | 73 | 137 | 0.0 | 7.0 | 0.00 | 0.01 | 0.00 | 63 | 1016.0 |
| 20260831174523 | 74 | 347 | 0.0 | 0.0 | 0.00 | 0.01 | 0.00 | 61 | 1016.3 |
| 20260831173014 | 74 | 113 | 0.0 | 7.0 | 0.00 | 0.01 | 0.00 | 59 | 1016.5 |
| 20260831171523 | 73 | 359 | 1.0 | 5.0 | 0.00 | 0.01 | 0.00 | 64 | 1016.5 |
| 20260831170013 | 74 | 122 | 1.0 | 7.0 | 0.00 | 0.01 | 0.00 | 68 | 1016.6 |
| 20260831164520 | 73 | 125 | 1.0 | 6.0 | 0.00 | 0.01 | 0.00 | 60 | 1016.6 |
| 20260831163009 | 73 | 359 | 0.0 | 5.0 | 0.00 | 0.01 | 0.00 | 63 | 1016.7 |
| 20260831161519 | 72 | 328 | 3.0 | 8.0 | 0.00 | 0.01 | 0.00 | 64 | 1016.9 |
| 20260831160013 | 71 | 137 | 2.0 | 6.0 | 0.00 | 0.01 | 0.00 | 62 | 1017.1 |
| 20260831154518 | 71 | 341 | 0.0 | 4.0 | 0.00 | 0.01 | 0.00 | 68 | 1017.4 |
| 20260831153007 | 70 | 282 | 0.0 | 0.0 | 0.00 | 0.01 | 0.00 | 73 | 1017.4 |
| 20260831151519 | 68 | 4 | 0.0 | 0.0 | 0.00 | 0.01 | 0.00 | 84 | 1017.5 |
| 20260831150005 | 66 | 354 | 0.0 | 0.0 | 0.00 | 0.01 | 0.00 | 86 | 1017.4 |
| 20260831144515 | 65 | 330 | 0.0 | 1.0 | 0.00 | 0.01 | 0.00 | 90 | 1017.6 |
| 20260831143002 | 63 | 330 | 0.0 | 0.0 | 0.00 | 0.01 | 0.00 | 94 | 1017.6 |
| 20260831141514 | 62 | 331 | 0.0 | 0.0 | 0.00 | 0.01 | 0.00 | 95 | 1017.6 |
| 20260831140026 | 61 | 333 | 0.0 | 4.0 | 0.00 | 0.02 | 0.00 | 96 | 1017.7 |
| 20260831134520 | 60 | 359 | 0.0 | 1.0 | 0.00 | 0.02 | 0.00 | 96 | 1018.1 |
| 20260831133020 | 59 | 312 | 0.0 | 1.0 | 0.00 | 0.02 | 0.00 | 96 | 1017.9 |
| 20260831131510 | 59 | 318 | 0.0 | 0.0 | 0.00 | 0.02 | 0.00 | 97 | 1018.1 |
| 20260831130020 | 58 | 359 | 0.0 | 6.0 | 0.00 | 0.02 | 0.00 | 97 | 1018.2 |
| 20260831124508 | 56 | 359 | 0.0 | 1.0 | 0.00 | 0.02 | 0.00 | 96 | 1018.4 |
| 20260831123023 | 55 | 359 | 0.0 | 0.0 | 0.00 | 0.02 | 0.00 | 96 | 1018.4 |
| 20260831121506 | 55 | 359 | 0.0 | 4.0 | 0.00 | 0.02 | 0.00 | 97 | 1018.5 |
| 20260831120024 | 54 | 359 | 0.0 | 5.0 | 0.00 | 0.03 | 0.00 | 96 | 1018.5 |
| 20260831114512 | 52 | 359 | 0.0 | 0.0 | 0.00 | 0.03 | 0.00 | 96 | 1018.5 |
| 20260831113022 | 52 | 315 | 0.0 | 0.0 | 0.00 | 0.03 | 0.00 | 96 | 1018.3 |
| 20260831111510 | 52 | 314 | 0.0 | 0.0 | 0.00 | 0.03 | 0.00 | 96 | 1018.1 |
| 20260831110019 | 52 | 314 | 0.0 | 0.0 | 0.00 | 0.03 | 0.00 | 96 | 1018.0 |
| 20260831104514 | 51 | 314 | 0.0 | 0.0 | 0.00 | 0.03 | 0.00 | 96 | 1017.8 |
| 20260831103018 | 51 | 314 | 0.0 | 0.0 | 0.00 | 0.03 | 0.00 | 96 | 1017.5 |
| 20260831101510 | 51 | 314 | 0.0 | 0.0 | 0.00 | 0.03 | 0.00 | 95 | 1017.3 |
| 20260831100018 | 51 | 314 | 0.0 | 0.0 | 0.00 | 0.05 | 0.00 | 95 | 1017.2 |
| 20260831094513 | 52 | 314 | 0.0 | 0.0 | 0.00 | 0.05 | 0.00 | 95 | 1017.3 |
| 20260831093022 | 52 | 315 | 0.0 | 0.0 | 0.00 | 0.05 | 0.00 | 95 | 1017.2 |
| 20260831091528 | 52 | 359 | 0.0 | 0.0 | 0.00 | 0.05 | 0.00 | 95 | 1017.2 |
| 20260831090022 | 52 | 314 | 0.0 | 0.0 | 0.00 | 0.07 | 0.00 | 95 | 1017.0 |
| 20260831084515 | 53 | 314 | 0.0 | 0.0 | 0.00 | 0.07 | 0.00 | 95 | 1017.0 |
| 20260831083020 | 53 | 314 | 0.0 | 0.0 | 0.00 | 0.07 | 0.00 | 95 | 1017.0 |
| 20260831081509 | 53 | 314 | 0.0 | 0.0 | 0.00 | 0.07 | 0.00 | 95 | 1017.0 |
| 20260831080018 | 54 | 359 | 0.0 | 0.0 | 0.00 | 0.07 | 0.00 | 95 | 1017.0 |
| 20260831074511 | 55 | 314 | 0.0 | 0.0 | 0.00 | 0.07 | 0.00 | 95 | 1016.9 |
| 20260831073020 | 55 | 314 | 0.0 | 0.0 | 0.00 | 0.07 | 0.00 | 95 | 1016.8 |
| 20260831071509 | 56 | 359 | 0.0 | 0.0 | 0.00 | 0.07 | 0.00 | 95 | 1016.8 |
| 20260831070016 | 56 | 316 | 0.0 | 1.0 | 0.00 | 0.07 | 0.00 | 95 | 1016.8 |
| 20260831064505 | 57 | 316 | 0.0 | 0.0 | 0.00 | 0.07 | 0.00 | 94 | 1016.8 |
| 20260831063014 | 58 | 314 | 0.0 | 0.0 | 0.00 | 0.07 | 0.00 | 95 | 1016.7 |
| 20260831061514 | 58 | 315 | 0.0 | 0.0 | 0.00 | 0.07 | 0.00 | 95 | 1016.6 |
| 20260831060013 | 59 | 315 | 0.0 | 0.0 | 0.00 | 0.07 | 0.00 | 95 | 1016.7 |
| 20260831054504 | 60 | 314 | 0.0 | 0.0 | 0.00 | 0.07 | 0.00 | 95 | 1016.7 |
| 20260831053014 | 60 | 314 | 0.0 | 0.0 | 0.00 | 0.07 | 0.00 | 95 | 1016.8 |
| 20260831051529 | 60 | 314 | 0.0 | 0.0 | 0.00 | 0.07 | 0.00 | 95 | 1016.9 |
| 20260831050013 | 60 | 315 | 0.0 | 0.0 | 0.00 | 0.07 | 0.00 | 95 | 1016.9 |
| 20260831044523 | 61 | 314 | 0.0 | 0.0 | 0.00 | 0.07 | 0.00 | 95 | 1016.8 |
| 20260831043012 | 61 | 314 | 0.0 | 0.0 | 0.00 | 0.07 | 0.00 | 95 | 1016.8 |
| 20260831041531 | 61 | 359 | 0.0 | 1.0 | 0.01 | 0.07 | 0.00 | 95 | 1016.8 |
| 20260831040030 | 61 | 316 | 0.0 | 0.0 | 0.01 | 0.07 | 0.07 | 95 | 1016.4 |
| 20260831034519 | 61 | 316 | 0.0 | 0.0 | 0.01 | 0.07 | 0.07 | 94 | 1016.2 |
| 20260831033009 | 61 | 316 | 0.0 | 0.0 | 0.01 | 0.07 | 0.07 | 94 | 1016.2 |
| 20260831031505 | 61 | 315 | 0.0 | 9.0 | 0.00 | 0.06 | 0.06 | 93 | 1016.2 |
| 20260831030016 | 62 | 343 | 0.0 | 0.0 | 0.00 | 0.06 | 0.06 | 93 | 1015.9 |
| 20260831024505 | 62 | 343 | 2.0 | 5.0 | 0.00 | 0.06 | 0.06 | 92 | 1015.8 |
| 20260831023015 | 62 | 312 | 0.0 | 5.0 | 0.00 | 0.06 | 0.06 | 92 | 1015.5 |
| 20260831021523 | 63 | 359 | 0.0 | 5.0 | 0.00 | 0.06 | 0.06 | 91 | 1015.7 |
| 20260831020008 | 63 | 293 | 0.0 | 2.0 | 0.00 | 0.06 | 0.06 | 90 | 1015.7 |
| 20260831014510 | 64 | 268 | 1.0 | 7.0 | 0.00 | 0.06 | 0.06 | 89 | 1015.5 |
| 20260831013018 | 65 | 292 | 2.0 | 6.0 | 0.00 | 0.06 | 0.06 | 88 | 1015.3 |
| 20260831011502 | 64 | 308 | 2.0 | 12.0 | 0.00 | 0.06 | 0.06 | 88 | 1015.2 |
| 20260831010015 | 64 | 300 | 2.0 | 8.0 | 0.00 | 0.06 | 0.06 | 89 | 1014.9 |
| 20260831004516 | 65 | 303 | 0.0 | 5.0 | 0.00 | 0.06 | 0.06 | 88 | 1014.8 |
| 20260831003024 | 65 | 359 | 1.0 | 7.0 | 0.00 | 0.06 | 0.06 | 87 | 1014.7 |
| 20260831001521 | 65 | 306 | 0.0 | 10.0 | 0.00 | 0.06 | 0.06 | 86 | 1014.5 |
| 20260831000007 | 65 | 313 | 0.0 | 9.0 | 0.00 | 0.06 | 0.06 | 86 | 1014.1 |
| 20260830234511 | 66 | 265 | 0.0 | 10.0 | 0.00 | 0.06 | 0.06 | 85 | 1013.8 |
| 20260830233012 | 66 | 359 | 3.0 | 12.0 | 0.00 | 0.06 | 0.06 | 84 | 1013.5 |
| 20260830231517 | 66 | 359 | 4.0 | 12.0 | 0.00 | 0.06 | 0.06 | 83 | 1013.6 |
| 20260830230029 | 66 | 295 | 7.0 | 14.0 | 0.00 | 0.06 | 0.06 | 82 | 1013.6 |
| 20260830224506 | 67 | 271 | 7.0 | 12.0 | 0.00 | 0.06 | 0.06 | 82 | 1013.6 |
| 20260830223010 | 67 | 359 | 8.0 | 14.0 | 0.00 | 0.06 | 0.06 | 81 | 1013.6 |
| 20260830221517 | 67 | 359 | 10.0 | 24.0 | 0.00 | 0.06 | 0.06 | 81 | 1013.7 |
| 20260830220025 | 67 | 302 | 9.0 | 21.0 | 0.00 | 0.06 | 0.06 | 80 | 1013.4 |
| 20260830214524 | 68 | 297 | 10.0 | 18.0 | 0.00 | 0.06 | 0.06 | 80 | 1013.2 |
| 20260830213010 | 68 | 303 | 7.0 | 20.0 | 0.00 | 0.06 | 0.06 | 81 | 1013.1 |
| 20260830211518 | 68 | 318 | 4.0 | 16.0 | 0.00 | 0.06 | 0.06 | 82 | 1013.2 |